Weather History for Frederick, MD

Change the Weather History Date:

Sunday, December 22, 2013

  Actual Average (KHGR) Record (KHGR)
Temperature  
Mean Temperature 64 °F 32 °F  
Max Temperature 69 °F 40 °F 69 °F (2013)
Min Temperature 60 °F 25 °F 7 °F (2000)
Degree Days  
Heating Degree Days 0 33  
Month to date heating degree days 658  
Since 1 July heating degree days 1663  
Cooling Degree Days 0 0  
Month to date cooling degree days 0  
Year to date cooling degree days 969  
Growing Degree Days 14 (Base 50)    
Moisture  
Dew Point 61 °F    
Average Humidity 91    
Maximum Humidity 100    
Minimum Humidity 83    
Precipitation  
Precipitation 0.02 in 0.10 in 0.51 in (2006)
Month to date precipitation 2.17  
Year to date precipitation 38.57  
Sea Level Pressure  
Sea Level Pressure 29.92 in    
Wind  
Wind Speed 14 mph (SSW)    
Max Wind Speed 21 mph    
Max Gust Speed 31 mph    
Visibility 10 miles    
Events Rain , Thunderstorm    
T = Trace of Precipitation, MM = Missing Value Source: NWS Daily Summary

Daily Weather History Graph

Daily Weather History Graph

Search for Another Location

Airport:

Trip Planner

Search our weather history database for the weather conditions in past years. The results will help you decide how hot, cold, wet, or windy it might be!

Date:

Astronomy

Dec. 22, 2013 Rise Set
Actual Time 7:26 AM EST 4:49 PM EST
Civil Twilight 6:56 AM EST 5:20 PM EST
Nautical Twilight 6:22 AM EST 5:53 PM EST
Astronomical Twilight 5:49 AM EST 6:26 PM EST
Moon 9:59 PM EST (12/22) 10:23 AM EST (12/22)
Length of Visible Light 10h 23m
Length of Day
9h 23m
Waning Gibbous, 77% of the Moon is Illuminated
Dec 22
Waning Gibbous
Dec 25
Last Quarter
Jan 1
New
Jan 7
First Quarter
Jan 15
Full

Hourly Weather History & Observations

Time (EST) Temp. Dew Point Humidity Pressure Visibility Wind Dir Wind Speed Gust Speed Precip Events Conditions
12:15 AM 64.4 °F 59.0 °F 83% 29.89 in 10.0 mi South 18.4 mph 27.6 mph N/A   Clear
12:35 AM 64.4 °F 60.8 °F 88% 29.90 in 10.0 mi South 20.7 mph 26.5 mph N/A Rain Light Rain
12:55 AM 64.4 °F 60.8 °F 88% 29.87 in 10.0 mi South 15.0 mph 26.5 mph N/A   Scattered Clouds
1:15 AM 64.4 °F 60.8 °F 88% 29.88 in 10.0 mi South 17.3 mph 21.9 mph N/A   Scattered Clouds
1:35 AM 64.4 °F 60.8 °F 88% 29.88 in 10.0 mi South 15.0 mph 25.3 mph 0.01 in Rain , Thunderstorm Thunderstorms and Rain
1:55 AM 64.4 °F 62.6 °F 94% 29.87 in 10.0 mi South 13.8 mph 20.7 mph 0.02 in Rain Light Rain
2:15 AM 64.4 °F 62.6 °F 94% 29.85 in 10.0 mi South 11.5 mph 16.1 mph N/A   Overcast
2:35 AM 66.2 °F 62.6 °F 88% 29.86 in 10.0 mi South 19.6 mph 26.5 mph N/A   Overcast
2:55 AM 66.2 °F 62.6 °F 88% 29.85 in 10.0 mi South 16.1 mph 25.3 mph N/A   Overcast
3:15 AM 66.2 °F 62.6 °F 88% 29.85 in 10.0 mi South 16.1 mph 20.7 mph N/A   Overcast
3:35 AM 68.0 °F 62.6 °F 83% 29.85 in 10.0 mi SSW 17.3 mph 21.9 mph N/A   Overcast
3:55 AM 68.0 °F 62.6 °F 83% 29.84 in 10.0 mi SSW 13.8 mph 17.3 mph N/A   Overcast
4:15 AM 68.0 °F 62.6 °F 83% 29.83 in 10.0 mi South 17.3 mph 21.9 mph N/A   Overcast
4:35 AM 68.0 °F 62.6 °F 83% 29.83 in 10.0 mi SSW 17.3 mph 21.9 mph N/A   Overcast
4:55 AM 68.0 °F 62.6 °F 83% 29.83 in 10.0 mi SSW 20.7 mph 26.5 mph N/A   Overcast
5:15 AM 68.0 °F 62.6 °F 83% 29.83 in 10.0 mi SSW 16.1 mph 25.3 mph N/A   Overcast
5:35 AM 68.0 °F 62.6 °F 83% 29.84 in 10.0 mi SSW 20.7 mph 31.1 mph N/A   Mostly Cloudy
5:40 AM 68.0 °F 62.6 °F 83% 29.84 in 10.0 mi SSW 18.4 mph 26.5 mph N/A   Mostly Cloudy
6:45 AM 69.8 °F 64.4 °F 83% 29.88 in 7.0 mi WSW 13.8 mph 26.5 mph N/A Rain Rain
7:45 AM 64.4 °F 62.6 °F 94% 29.92 in 10.0 mi SSW 4.6 mph - N/A   Overcast
9:36 AM 62.6 °F 62.6 °F 100% 30.00 in 5.0 mi SSW 9.2 mph - N/A Rain Light Rain
10:06 AM 62.6 °F 62.6 °F 100% 30.00 in 10.0 mi SSW 6.9 mph - N/A   Overcast
10:45 AM 64.4 °F 64.4 °F 100% 30.02 in 10.0 mi South 5.8 mph - N/A   Overcast
11:13 AM 64.4 °F 64.4 °F 100% 29.97 in 10.0 mi South 6.9 mph - N/A   Overcast
11:45 AM 64.4 °F 62.6 °F 94% 29.96 in 10.0 mi SSW 9.2 mph - N/A   Overcast
12:45 PM 64.4 °F 62.6 °F 94% 29.92 in 10.0 mi South 9.2 mph - N/A   Overcast
1:45 PM 64.4 °F 60.8 °F 88% 29.92 in 10.0 mi South 6.9 mph - N/A   Overcast
2:45 PM 64.4 °F 60.8 °F 88% 29.90 in 10.0 mi South 10.4 mph - N/A   Overcast
3:45 PM 62.6 °F 60.8 °F 94% 29.92 in 10.0 mi Variable 3.5 mph - N/A   Overcast
4:55 PM 62.6 °F 60.8 °F 94% 29.92 in 10.0 mi SSW 9.2 mph 18.4 mph N/A   Overcast
5:45 PM 62.6 °F 59.0 °F 88% 29.94 in 10.0 mi SW 6.9 mph - N/A   Clear
6:50 PM 62.6 °F 59.0 °F 88% 29.94 in 10.0 mi SSW 6.9 mph - N/A   Clear
7:55 PM 60.8 °F 59.0 °F 94% 29.97 in 10.0 mi SSW 9.2 mph - N/A   Clear
8:15 PM 60.8 °F 59.0 °F 94% 29.99 in 10.0 mi SSW 11.5 mph - N/A   Clear
8:35 PM 60.8 °F 59.0 °F 94% 29.99 in 10.0 mi South 10.4 mph - N/A   Clear
8:55 PM 60.8 °F 59.0 °F 94% 29.99 in 10.0 mi South 8.1 mph - N/A   Clear
9:15 PM 60.8 °F 59.0 °F 94% 29.99 in 10.0 mi SSW 8.1 mph - N/A   Clear
9:35 PM 60.8 °F 59.0 °F 94% 29.98 in 10.0 mi South 8.1 mph - N/A   Clear
9:55 PM 60.8 °F 59.0 °F 94% 29.99 in 10.0 mi South 9.2 mph - N/A   Scattered Clouds
10:15 PM 60.8 °F 59.0 °F 94% 29.98 in 10.0 mi South 6.9 mph - N/A   Scattered Clouds
10:35 PM 60.8 °F 59.0 °F 94% 29.98 in 10.0 mi SSW 6.9 mph - N/A   Scattered Clouds
10:55 PM 60.8 °F 59.0 °F 94% 29.99 in 10.0 mi SSW 9.2 mph - N/A   Scattered Clouds
11:15 PM 60.8 °F 59.0 °F 94% 29.99 in 10.0 mi South 8.1 mph - N/A   Mostly Cloudy
11:35 PM 60.8 °F 59.0 °F 94% 30.02 in 10.0 mi SSW 10.4 mph - N/A   Mostly Cloudy
11:55 PM 60.8 °F 59.0 °F 94% 29.99 in 10.0 mi SSW 8.1 mph - N/A   Scattered Clouds